EHI
7 8 10 12 9 5 3 3 3 3 3 3 3 3 3 2 1 0 0 0 0 0 0 0 0 0 0 0 0 0 0 0 0 0 0 0 1 1 2 2 1 0 0
15 12 13 14 11 6 4 3 3 3 3 3 3 3 2 1 0 0 0 0 0 0 0 0 0 0 0 0 0 0 0 0 0 0 0 0 1 1 1 1 0 0 0
28 19 15 18 15 9 6 5 4 3 2 2 2 1 1 0 0 0 0 0 0 0 0 0 0 0 0 0 0 0 0 0 0 0 0 0 0 0 0 0 0 0 0
37 23 16 22 20 11 7 5 3 1 1 1 1 0 0 0 0 0 0 0 0 0 0 0 0 0 0 0 0 0 0 0 0 0 0 0 0 0 0 0 0 0 0
39 26 22 28 24 13 7 4 2 1 0 0 0 0 0 0 0 0 0 0 0 0 0 0 0 0 0 0 0 0 0 0 0 0 0 0 0 0 0 0 0 0 0
42 32 29 35 29 15 7 4 2 0 0 0 0 0 0 0 0 0 0 0 0 0 0 0 0 0 0 0 0 0 0 0 0 0 0 0 0 0 0 0 0 0 0
49 39 33 35 29 17 9 4 2 1 0 0 0 0 0 0 0 0 0 0 0 0 0 0 0 0 0 0 0 0 1 0 0 0 0 0 0 0 0 0 0 0 0
55 44 33 29 24 17 10 6 3 2 0 0 0 0 0 0 0 0 0 0 0 0 0 0 0 0 0 0 0 0 0 0 0 0 0 0 0 0 0 0 0 0 0
54 46 33 24 19 15 11 8 4 2 0 0 0 0 0 0 0 0 0 0 0 0 0 0 0 0 0 1 2 1 0 0 0 0 0 0 0 0 0 0 0 0 0
49 43 32 21 15 12 10 9 6 3 0 0 0 0 0 0 0 0 0 0 0 0 0 0 0 0 0 1 2 1 0 0 0 0 0 0 0 0 0 0 0 0 0
44 39 29 19 12 9 8 8 6 3 1 0 0 0 0 0 0 0 0 0 0 0 0 0 0 0 0 0 1 0 0 0 0 0 0 0 0 0 0 0 0 0 0
44 37 25 16 10 7 7 6 4 2 0 0 0 0 0 0 0 0 0 0 0 0 0 0 0 0 0 0 0 0 0 0 0 0 0 0 0 0 0 0 0 0 0
46 37 23 13 8 6 6 6 4 1 0 0 0 0 0 0 0 0 0 0 0 0 0 0 0 0 0 0 0 0 0 0 0 0 0 0 0 0 0 0 0 0 0
50 40 23 12 8 6 6 6 5 2 1 0 0 0 0 0 0 0 0 0 0 0 0 0 0 0 0 0 0 0 0 0 0 0 0 0 0 0 0 0 0 0 0
54 43 24 13 9 6 6 6 5 3 1 0 0 0 0 0 0 0 0 0 0 0 0 0 0 0 0 0 0 0 0 0 0 0 0 0 0 0 0 0 0 0 0
58 47 30 18 12 9 6 5 4 4 2 0 0 0 0 0 0 0 0 0 0 0 0 0 0 0 0 0 0 0 0 0 0 0 0 0 0 0 1 0 0 0 0
62 54 39 26 18 12 7 5 5 5 3 1 1 1 0 0 0 0 0 0 0 0 0 0 0 0 0 0 0 0 0 0 0 0 0 0 0 0 0 0 0 0 0
65 59 48 37 26 15 8 6 7 7 5 3 2 2 1 0 1 1 0 0 0 0 0 0 0 0 0 0 0 0 0 0 0 0 0 0 0 0 0 0 0 0 0
64 60 55 48 34 20 11 9 8 7 5 4 3 3 3 2 2 2 1 0 0 0 0 0 0 0 0 0 0 0 0 0 0 0 0 0 0 0 0 0 0 0 0
61 60 60 56 43 27 19 15 10 7 5 3 3 4 4 4 3 2 1 0 0 0 0 0 0 0 0 0 0 0 0 0 0 0 0 0 0 0 0 0 0 0 0
58 58 59 57 47 33 25 21 15 9 5 3 3 3 3 4 3 1 0 0 0 0 0 0 0 0 0 0 0 0 0 0 0 0 0 0 0 0 0 0 0 0 0
57 56 55 54 47 35 26 22 18 12 7 4 2 1 1 2 1 0 0 0 0 0 0 0 0 0 0 0 0 0 0 0 0 0 0 0 0 0 0 0 0 0 0
54 53 51 49 44 35 26 22 20 15 11 7 4 1 0 0 0 0 0 0 0 0 0 0 0 0 0 0 0 0 0 0 0 0 0 0 0 0 0 0 0 0 0
51 50 48 44 41 36 29 25 23 20 15 10 7 3 1 0 0 1 1 0 0 0 0 0 0 0 0 0 0 0 0 0 0 0 0 0 0 0 0 0 0 0 0
46 46 43 41 39 37 33 29 25 21 16 11 8 5 2 1 0 1 1 0 0 0 0 0 0 0 0 0 0 0 0 0 0 0 0 0 0 0 0 0 0 0 0
43 41 40 40 40 38 34 29 24 20 15 11 9 6 3 1 0 0 1 0 0 0 0 0 0 0 0 0 0 0 0 0 0 0 0 0 0 0 0 0 0 0 0
Wind_Speed
10 11 18 18 18 18 18 18 18 18 18 18 18 18 18 18 18 18 17 17 16 16 16 16 16 16 16 16 16 16 16 16 16 16 16 16 16 16 16 16 15 11 16
13 14 19 19 19 19 18 18 18 18 18 18 17 17 17 17 17 17 16 16 16 16 16 15 15 15 15 15 15 16 16 16 16 16 16 15 15 15 16 16 15 10 15
17 14 17 19 19 19 18 18 18 17 17 17 17 17 17 16 16 16 16 15 15 15 15 15 15 14 14 14 14 14 14 15 15 16 14 8 10 15 15 16 16 16 15
17 13 15 20 20 19 18 18 17 17 17 16 16 16 16 16 16 16 15 15 15 15 14 14 14 14 13 13 13 12 12 12 14 14 7 6 7 14 15 15 15 15 15
14 11 16 21 20 19 18 17 17 17 16 16 16 16 16 15 15 15 15 15 15 14 14 13 13 13 12 12 11 9 9 10 12 11 6 6 6 13 14 15 15 15 14
13 11 15 21 20 19 19 18 17 17 16 16 16 16 15 15 15 15 15 15 14 14 13 13 12 11 11 10 9 8 9 12 11 7 6 5 5 12 14 14 14 14 14
14 10 14 20 20 19 19 18 17 17 16 16 16 16 15 15 15 15 14 14 13 13 12 11 11 10 9 9 8 8 10 13 8 6 5 5 6 11 13 14 14 13 13
16 12 13 20 20 19 19 18 17 17 16 16 16 15 15 15 15 14 14 13 13 12 11 10 10 9 8 7 7 8 10 11 10 8 6 5 9 11 13 13 13 13 12
14 12 10 11 14 18 18 18 17 16 16 16 15 15 15 15 14 14 13 13 12 11 10 9 8 7 6 6 6 8 9 12 7 5 7 4 9 11 12 12 12 12 12
12 11 9 8 8 9 11 17 17 17 16 15 15 15 15 14 14 13 11 12 11 10 9 8 7 6 5 5 6 8 11 10 5 5 4 6 11 12 12 11 11 11 11
12 9 9 9 8 7 8 13 14 15 15 14 12 15 12 6 6 7 9 11 11 10 8 7 6 4 4 4 6 9 9 4 5 4 3 8 11 11 11 11 10 10 10
15 12 10 10 9 8 9 7 5 6 7 6 5 6 4 4 4 6 9 10 10 8 7 5 4 2 2 2 4 7 4 5 4 3 4 10 10 11 10 10 10 10 10
16 14 11 11 10 8 6 6 4 3 4 5 5 6 4 4 3 3 2 4 4 5 2 2 1 1 1 1 2 3 4 4 2 2 5 10 10 11 10 10 9 9 9
15 14 13 11 10 8 7 6 5 4 4 4 5 6 4 3 3 3 2 2 2 1 2 1 1 1 1 2 3 5 5 3 3 2 4 10 9 10 11 10 9 9 9
15 14 14 12 11 9 8 6 7 6 5 5 4 5 6 5 4 4 2 2 2 2 2 2 1 1 1 2 4 6 6 5 5 4 3 10 10 9 10 10 9 9 8
16 16 13 13 11 10 8 7 6 6 5 5 4 6 7 5 5 4 3 3 2 2 2 2 2 2 1 2 4 5 6 5 4 4 3 5 9 9 9 9 9 8 8
16 15 14 13 12 11 10 9 7 6 6 5 5 6 6 6 6 5 4 3 3 2 3 2 2 2 2 2 3 4 5 5 5 5 4 2 4 7 9 9 8 8 8
14 14 14 14 12 11 9 7 6 6 6 5 5 5 6 6 6 5 4 3 3 2 2 3 2 2 2 2 2 2 3 4 5 5 4 4 3 3 6 9 8 7 8
15 14 13 11 12 11 8 6 6 6 6 5 5 5 5 6 6 5 4 3 3 3 2 2 2 2 2 2 2 2 2 3 4 5 4 5 4 3 3 6 8 7 7
13 13 13 11 11 9 7 5 5 5 5 5 5 5 6 5 6 5 3 3 3 3 2 2 3 2 2 2 2 2 1 1 2 3 4 4 3 4 4 3 3 4 7
12 12 12 12 11 9 7 6 6 6 5 4 4 6 6 6 5 5 4 3 3 3 3 3 2 2 1 1 3 2 3 1 1 2 2 3 4 4 4 4 3 2 2
14 14 13 13 12 10 7 6 5 5 4 4 4 4 5 6 5 5 5 4 4 3 3 3 3 2 1 2 3 3 2 3 2 0 1 3 4 3 4 5 4 3 2
13 15 13 13 12 11 9 6 5 4 3 3 4 4 4 5 5 5 5 4 4 4 3 3 3 4 2 0 2 4 4 3 1 2 1 2 3 3 3 3 4 4 4
14 13 12 12 11 10 10 9 10 8 6 5 5 4 4 5 5 5 5 5 4 4 4 3 3 3 3 2 0 1 2 4 3 0 2 1 2 3 3 4 4 4 4
12 11 11 11 10 10 10 10 10 7 5 4 5 6 5 4 5 5 5 5 4 4 4 3 3 3 3 3 2 1 1 1 2 3 1 1 1 1 2 3 3 3 4
10 11 11 11 11 10 11 10 10 10 8 8 7 7 5 3 3 5 6 5 5 4 4 4 4 4 3 3 2 2 2 2 2 3 2 2 2 2 2 2 2 3 3
Wind_Direction
149 149 142 135 128 123 119 115 111 108 106 104 103 103 103 104 105 106 106 106 105 104 103 102 103 105 106 106 108 108 108 107 106 104 103 103 104 104 104 103 100 101 105
147 149 142 137 132 127 123 120 116 113 111 110 109 108 108 107 108 108 108 108 107 105 104 103 104 105 106 107 108 109 109 107 105 103 102 101 104 105 105 105 104 107 107
142 144 141 138 134 130 127 125 121 118 116 115 113 112 112 112 111 111 111 111 109 108 106 106 106 106 106 107 108 109 109 108 106 104 101 96 102 105 107 107 107 108 108
139 140 142 140 137 134 131 129 126 123 121 119 117 116 116 116 116 115 114 113 112 111 110 109 108 107 106 107 106 106 109 112 110 108 98 97 105 108 108 108 109 109 109
135 138 145 141 139 137 135 133 130 128 125 123 122 120 119 119 119 117 116 115 114 113 113 112 111 109 108 106 103 103 108 112 111 104 98 93 100 112 112 111 111 110 110
134 137 145 142 141 140 138 136 134 132 129 127 125 123 123 122 121 119 118 117 116 115 115 114 113 110 106 102 98 96 103 113 108 103 102 104 106 116 116 114 113 112 112
136 139 144 144 144 143 141 139 138 136 133 130 128 127 125 124 124 123 122 121 120 119 119 117 114 111 106 99 92 91 107 116 111 108 106 105 113 119 119 116 115 115 115
139 140 145 147 146 145 144 143 141 139 136 134 133 131 129 128 127 127 126 125 124 123 123 121 118 113 106 98 90 95 113 121 120 117 111 110 123 123 122 120 119 119 117
139 141 143 148 148 149 147 146 145 142 140 139 138 136 133 132 131 131 130 129 129 129 128 127 124 117 106 93 88 92 111 116 118 124 127 123 129 128 127 125 124 122 122
143 144 144 144 144 146 148 149 148 147 145 144 144 142 139 138 137 137 135 135 136 134 134 133 129 119 103 88 90 100 114 117 116 119 120 135 136 135 133 132 130 128 126
148 150 149 146 145 145 149 154 151 151 151 149 148 148 141 133 133 137 143 143 142 142 141 139 136 124 97 75 84 101 109 114 115 119 127 141 142 141 140 139 137 135 132
158 160 158 155 154 156 158 146 148 149 147 143 144 142 136 141 150 147 155 151 151 150 150 149 145 124 86 65 82 100 108 119 113 127 144 149 148 147 148 146 145 143 140
162 163 163 163 162 164 151 151 150 144 145 148 152 149 147 143 144 134 141 144 147 151 143 147 130 74 86 103 100 119 126 119 123 141 155 158 156 155 155 154 153 151 149
165 167 166 167 165 165 155 159 158 156 160 163 167 159 148 144 144 145 147 148 152 149 155 157 178 219 196 144 132 134 137 136 140 148 169 167 164 162 162 161 161 160 158
168 168 170 169 169 164 159 167 165 167 170 168 166 163 155 154 158 158 161 160 167 169 165 167 177 171 153 144 140 142 148 157 159 160 169 173 169 169 168 168 169 169 168
172 169 170 170 169 164 166 171 168 170 168 161 163 164 161 159 159 157 159 166 181 183 172 168 165 152 140 130 138 147 155 161 165 163 170 178 177 174 174 172 173 177 177
171 167 169 170 169 168 171 174 168 170 166 163 164 159 156 156 156 154 155 166 181 168 149 132 118 103 111 118 134 145 155 163 165 168 169 171 180 183 181 179 179 182 181
165 167 172 172 169 170 170 171 164 165 161 161 158 155 153 153 154 151 155 162 161 145 129 123 110 94 90 105 126 149 150 157 166 172 173 175 180 185 188 187 184 187 186
167 168 171 169 168 168 165 161 159 157 157 158 155 154 155 154 153 149 152 154 147 134 128 138 114 124 120 122 140 140 140 154 169 177 176 180 184 180 184 196 190 191 194
167 167 168 167 167 163 155 143 140 144 152 154 156 157 154 155 153 144 143 144 137 129 128 121 122 114 132 143 120 102 119 155 166 174 179 177 180 183 181 187 186 200 200
164 165 168 166 168 164 161 154 151 156 160 157 160 158 157 155 150 145 141 138 140 141 152 143 123 111 103 109 82 50 13 19 160 179 174 166 180 185 177 180 183 188 200
169 171 170 170 170 171 169 160 154 150 157 159 155 155 160 155 152 153 144 148 145 135 134 133 122 119 107 123 123 104 45 355 338 207 178 177 184 180 183 190 186 188 187
173 175 175 175 172 170 160 142 135 120 120 135 154 163 168 159 153 145 150 146 148 148 152 151 140 134 137 110 140 141 147 198 276 329 262 189 179 177 187 192 196 198 195
178 177 172 172 172 168 161 160 160 162 165 173 168 166 168 165 156 150 151 148 151 153 154 159 144 140 135 142 168 143 156 155 149 190 320 291 204 184 188 202 199 195 190
174 173 172 168 170 167 167 168 167 165 163 151 153 161 168 170 164 158 156 151 151 153 156 148 133 132 139 148 158 147 106 98 119 139 204 280 307 246 209 205 187 185 187
168 169 170 170 172 171 170 172 173 168 164 160 164 170 173 171 171 168 161 157 156 156 158 152 143 139 136 134 136 140 148 150 170 150 168 206 233 271 247 219 201 190 188